Showing default

HULIANWANG DIGUI-46, 65049

Orbit data source: Space-Track

HULIANWANG DIGUI-46, 65049 is a payload satellite owned by Zhongguo Xingwang (CN) in LEO that was launched on Wed, 30 Jul 2025 UTC via a CHANG ZHENG 8A launch vehicle from the Wenchang Satellite Launch Center (WSC). Payload-class satellites include a variety of spacecraft equipped with specific instruments for various scientific and technological missions. These include communications satellites like Starlink; space stations such as the ISS; scientific satellites like the Hubble; Earth observation satellites from companies like Planet Labs, Umbra, and HawkEye 360; GPS; miniature CubeSats for education and research; and military/defense satellites.

Loading next visibility...
Identifier
65049, 2025-162G
Orbit
LEO
Country
Flag of CNCN / PRC
Related business
Manufacturer
SECM
Mission
Operational Civil Communications
Bus & Motor
GUOWANG S, Unknown motor
Mass
~800 kg wet, ~800 kg dry
Launch date (UTC)
2025-07-30 (4 months ago)
Launch vehicle
CHANG ZHENG 8A
Launch site
Wenchang Satellite Launch Center (WSC)
Object type
Payload
Rocket body
Debris
Shape & HBR
Box + 2 Pan, 14.5 m
Radar Cross Section
5.935 m², Large (>1 m²)

Expand to show TLE details & history
Last TLE update: 9 hours ago

TLE from 9 hours ago
0 HULIANWANG DIGUI-46
1 65049U 25162G   25342.61166921 -.00000041  00000-0  17955-3 0  9994
2 65049  50.0054 229.1508 0000494  80.4749 279.6179 13.29332652 18013
Epoch: 2025-12-08T14:40Z
TLE epoch observation values (Epoch: 2025-12-08T14:40:48.219Z)
Latitude
-0.00003°
Longitude
-68.65835°
Altitude
1,149.726 km
Speed
7.279 km/s
True Right ascension
15h 16m 36s
True Declination
0° 00' 00"
Sunlit
Object was in daylight at epoch
Visualization orbit readout
Latitude
Unknown
Longitude
Unknown
Altitude
Unknown
Speed
Unknown
Apparent Right ascension
Unknown
Apparent Declination
Unknown
Sunlit
N/A
Visualization observer readout
Local Sidereal Time
21:56:20
Azimuth
Unknown
Elevation
Unknown
Doppler factor
Unknown
Orbital elements
Apogee altitude
1,150.358 km
Perigee altitude
1,149.614 km
Semi-major axis
7,528.123 km
Eccentricity
0.00005
Inclination
50.0054°
RAAN
229.1508°
Arg. of periapsis
80.4749°
True anomaly
279.61232°
Mean anomaly
279.6179°
Eccentric anomaly
279.61511°
Mean motion
3.32287 °/min
Orbital period
108.34 mins
BSTAR
0.00017955
Loading maneuver chart data...
Computing Atmospheric mass density...
Loading historical data...
Loading historical data...
Loading historical data...
Loading historical data...
Loading historical data...
Loading historical data...
Loading historical data...

Documentation

Showing up to 5 results
|